This is the latest recevied weather packets stored in our database for station/object KC5AV. If no packets are shown the sender has not sent any weather packets the latest 10 day(s).
| Time | Temp. | Humidity | Pressure | Rain* | Wind** | Luminosity | Snow |
|---|---|---|---|---|---|---|---|
| 1787530122 | 39.44° C | 34% | 1013.4 hPa | 0 mm | - | 47 W/m² | - |
| 1787529818 | 39.44° C | 33% | 1013.5 hPa | 0 mm | - | 55 W/m² | - |
| 1787529512 | 39.44° C | 34% | 1013.5 hPa | 0 mm | - | 54 W/m² | - |
| 1787529212 | 39.44° C | 34% | 1013.5 hPa | 0 mm | - | 50 W/m² | - |
| 1787528907 | 39.44° C | 33% | 1013.5 hPa | 0 mm | - | 50 W/m² | - |
| 1787528604 | 39.44° C | 32% | 1013.5 hPa | 0 mm | - | 51 W/m² | - |
| 1787528304 | 40° C | 32% | 1013.6 hPa | 0 mm | - | 55 W/m² | - |
| 1787528001 | 40° C | 31% | 1013.6 hPa | 0 mm | - | 52 W/m² | - |
| 1787527696 | 40.56° C | 31% | 1013.3 hPa | 0 mm | - | 65 W/m² | - |
| 1787527392 | 41.11° C | 29% | 1013.4 hPa | 0 mm | - | 102 W/m² | - |
| 1787527087 | 41.11° C | 30% | 1013.2 hPa | 0 mm | - | 108 W/m² | - |
| 1787526782 | 41.11° C | 30% | 1013.2 hPa | 0 mm | - | 112 W/m² | - |
| 1787526479 | 41.11° C | 30% | 1013.5 hPa | 0 mm | - | 143 W/m² | - |
| 1787526175 | 40.56° C | 31% | 1013.2 hPa | 0 mm | - | 171 W/m² | - |
| 1787525871 | 41.67° C | 29% | 1013.5 hPa | 0 mm | - | 68 W/m² | - |
| 1787525566 | 42.22° C | 28% | 1013.5 hPa | 0 mm | - | 210 W/m² | - |
| 1787525260 | 41.67° C | 28% | 1013.5 hPa | 0 mm | - | 234 W/m² | - |
| 1787524958 | 41.67° C | 28% | 1013.5 hPa | 0 mm | - | 151 W/m² | - |
| 1787524657 | 41.67° C | 28% | 1013.6 hPa | 0 mm | - | 131 W/m² | - |
| 1787524353 | 42.22° C | 28% | 1013.7 hPa | 0 mm | - | 195 W/m² | - |
| 1787524053 | 42.22° C | 28% | 1013.5 hPa | 0 mm | - | 308 W/m² | - |
| 1787523750 | 42.78° C | 28% | 1013.4 hPa | 0 mm | - | 319 W/m² | - |
| 1787523449 | 42.22° C | 28% | 1013.4 hPa | 0 mm | - | 335 W/m² | - |
| 1787523144 | 41.67° C | 30% | 1013.8 hPa | 0 mm | - | 165 W/m² | - |
| 1787522840 | 42.22° C | 29% | 1013.8 hPa | 0 mm | - | 373 W/m² | - |
* Rain latest hour (hover to see other rain measurements)
** Current wind speed in m/s (hover to see current wind gust speed)